Location: Gönnheim
(49.4488°N, 8.2383°E)
Time: 07:03:22
(UTC+00:00)

NOSS 3-1 (C) - Pass Details

Date: 19 May 2025
Orbit: 625 x 1577 km, 63.4° (Epoch: 18 June)

Event Time Altitude Azimuth Distance (km) Brightness Sun altitude
Rises 20:17:07 0° 195° (SSW) 2,944 5.7 -9.2°
Reaches altitude 10° 20:19:21 10° 188° (S) 2,090 4.9 -9.5°
Maximum altitude 20:23:42 39° 119° (ESE) 1,093 3.4 -10.0°
Drops below altitude 10° 20:28:52 10° 52° (NE) 2,486 5.6 -10.5°
Sets 20:31:45 0° 45° (NE) 3,579 6.5 -10.8°
